Sigfox identifier Datetime Temperature Humidity SNR
003B84A8 2018-10-09 08:10:01 20.2 39 20.2
003B84A8 2018-10-09 07:05:18 20.2 39 18.1
003B84A8 2018-10-09 06:00:37 20.2 39 18
003B84A8 2018-10-09 04:55:54 20.2 39 17.9
003B84A8 2018-10-09 01:41:49 20.2 39 17.6
003B84A8 2018-10-09 00:37:05 20.2 39 17.4
003B84A8 2018-10-08 23:32:24 20.2 39 17.4
003B84A8 2018-10-08 22:27:38 20.1 39 17.1
003B84A8 2018-10-08 21:22:53 20 39 17.1
003B84A8 2018-10-08 20:18:12 20 39 17.1
003B84A8 2018-10-08 19:13:34 20.1 39 17
003B84A8 2018-10-08 18:08:55 20 39 16.9
003B84A8 2018-10-08 17:04:13 20 39 16.9
003B84A8 2018-10-08 15:59:30 20.1 39 16.9
003B84A8 2018-10-08 14:54:50 20.2 39 9.4
003B84A8 2018-10-08 13:50:09 20.2 39 8.5
003B84A8 2018-10-08 10:35:58 20.3 39 8.7
003B84A8 2018-10-08 07:21:52 20.4 40 8.7
003B84A8 2018-10-08 05:12:21 20.4 40 8.8
003B84A8 2018-10-08 03:02:57 20.4 40 8.8
003B84A8 2018-10-08 01:58:20 20.4 41 8.9
003B84A8 2018-10-08 00:53:40 20.4 41 8.9
003B84A8 2018-10-07 21:39:41 20.4 41 8.9
003B84A8 2018-10-07 19:30:25 20.5 41 9
003B84A8 2018-10-07 17:21:04 20.6 41 9.2
003B84A8 2018-10-07 16:16:29 20.6 41 9.3
003B84A8 2018-10-07 14:07:06 20.6 41 9.5
003B84A8 2018-10-07 13:02:26 20.6 41 10.1
003B84A8 2018-10-07 11:57:46 20.6 42 10.2
003B84A8 2018-10-07 10:53:02 20.6 42 10.1
003B84A8 2018-10-07 07:38:52 20.6 42 10.1
003B84A8 2018-10-07 05:29:24 20.6 42 10.1
003B84A8 2018-10-07 04:24:43 20.6 42 10.2
003B84A8 2018-10-07 01:10:29 20.7 42 10.2
003B84A8 2018-10-06 23:01:10 20.8 43 10.3
003B84A8 2018-10-06 21:56:30 20.8 43 10.4
003B84A8 2018-10-06 20:51:52 20.8 43 10.5
003B84A8 2018-10-06 18:42:29 20.8 43 10.7
003B84A8 2018-10-06 17:37:48 20.8 43 10.9
003B84A8 2018-10-06 16:33:02 20.8 43 11.1
003B84A8 2018-10-06 15:28:19 20.8 43 11.3
003B84A8 2018-10-06 11:09:28 20.8 43 11.4
003B84A8 2018-10-06 07:55:12 20.8 44 11.4
003B84A8 2018-10-06 04:40:58 21 44 11.5
003B84A8 2018-10-06 03:36:18 21 44 11.8
003B84A8 2018-10-06 02:31:41 21 44 11.9
003B84A8 2018-10-06 00:22:22 21 45 12.3
003B84A8 2018-10-05 23:17:37 21 45 12.7
003B84A8 2018-10-05 21:08:13 21.2 45 13.1
003B84A8 2018-10-05 20:03:29 21.2 45 13.5
003B84A8 2018-10-05 16:49:11 21.3 47 14.1
003B84A8 2018-10-05 15:44:25 21.4 47 14.5
003B84A8 2018-10-05 14:39:35 21.5 49 11.6
003B84A8 2018-10-05 13:34:44 21.3 57 0